Weather in Sokotra

Yemen     12°26′49″N   53°53′44″E
temp.,
°C
wind,
m/s
gust,
m/s
humid.,
%
clouds,
%
prec.,
mm/h
press.,
hPa
HPBL,
m
4 march, thu
thu400:00+21nne23850 0.0 1014113
03:00+19ne12911 0.0 101353
06:00+20nne34857 0.0 101474
09:00+26ne46413 0.0 1015742
12:00+30ene672414 0.0 10141309
15:00+29ene552424 0.0 10121303
18:00+24ne113866 0.0 101399
21:00+21nne235733 0.0 101476
5 march, fri
fri500:00+20ne34670 0.0 101360
03:00+19nne33650 0.0 101233
06:00+18ne347071 0.0 101435
09:00+26ene353246 0.0 1015834
12:00+30ene562340 0.0 10131527
15:00+28e442969 0.0 10121330
18:00+23ne1151100 0.0 1013187
21:00+21n116793 0.0 1015119
6 march, sat
sat600:00+19n11760 0.0 101454
03:00+18ne22700 0.0 101340
06:00+18nne23780 0.0 101551
09:00+25ene23430 0.0 1017739
12:00+29e45290 0.0 10151787
15:00+28e44336 0.0 10121619
18:00+23nne12550 0.0 1014208
21:00+21n23690 0.0 1015110
7 march, sun
sun700:00+20ne12730 0.0 101444
03:00+19n23760 0.0 101233
06:00+19nne34890 0.0 101459
09:00+26ne45420 0.0 1016707
12:00+30ene67250 0.0 10131701
15:00+29ene56250 0.0 10111631
18:00+23nne23510 0.0 1012177
21:00+21nne23730 0.0 1013131
8 march, mon
mon800:00+20ne23820 0.0 101285
03:00+18ene23830 0.0 101145
06:00+19ne237335 0.0 101329
09:00+28e582628 0.0 10151157
12:00+30e77240 0.0 10131587
15:00+29e66280 0.0 10111435
18:00+23ese23550 0.0 1012155
21:00+21ne12680 0.0 101496